When you browse on this site, cookies collect data to enhance your experience and personalize the content and advertising you see.
Visit our Privacy Policy to learn more. By continuing to use the site, you agree to this use of cookies and data.
  • In Deutschland
  • Länderverzeichnis
  • Für 7 Tage
  • Wassertemperatur
  • Satellitenkarten
  • Wetterkarte
  • Widgets
  • user-avatar
    Anmelden

    Stündliche Wetter Chongru

    Heute, 19 Dezember, Mittwoch

    Zeit Temperatur Niederschläge Wind Luftdruck Luftfeuchtigkeit
    00:00 +9°C° 0 mm 1 m/S 743 mmHg 80%
    01:00 +9°C° 0 mm 1 m/S 743 mmHg 79%
    02:00 +9°C° 0 mm 1 m/S 743 mmHg 79%
    03:00 +9°C° 0 mm 1 m/S 742 mmHg 78%
    04:00 +8°C° 0 mm 2 m/S 742 mmHg 76%
    05:00 +8°C° 0 mm 2 m/S 742 mmHg 75%
    06:00 +9°C° 0 mm 2 m/S 742 mmHg 73%
    07:00 +10°C° 0 mm 2 m/S 742 mmHg 71%
    08:00 +12°C° 0 mm 2 m/S 743 mmHg 66%
    09:00 +15°C° 0 mm 2 m/S 743 mmHg 62%
    10:00 +18°C° 0 mm 1 m/S 742 mmHg 58%
    11:00 +20°C° 0 mm 1 m/S 742 mmHg 54%
    12:00 +21°C° 0 mm 1 m/S 741 mmHg 54%
    13:00 +21°C° 0 mm 1 m/S 741 mmHg 54%
    14:00 +20°C° 0 mm 2 m/S 740 mmHg 56%
    15:00 +18°C° 0 mm 2 m/S 740 mmHg 64%
    16:00 +18°C° 0 mm 1 m/S 739 mmHg 72%
    17:00 +15°C° 0 mm 1 m/S 739 mmHg 81%
    18:00 +15°C° 0 mm 1 m/S 739 mmHg 84%
    19:00 +14°C° 0 mm 1 m/S 739 mmHg 87%
    20:00 +13°C° 0 mm 1 m/S 740 mmHg 91%
    21:00 +13°C° 0 mm 1 m/S 739 mmHg 91%
    22:00 +13°C° 0 mm 1 m/S 739 mmHg 91%
    23:00 +13°C° 0 mm 1 m/S 739 mmHg 91%

    Morgen, 20 Dezember, Donnerstag

    Zeit Temperatur Niederschläge Wind Luftdruck Luftfeuchtigkeit
    00:00 +13°C° 0 mm 1 m/S 739 mmHg 90%
    01:00 +13°C° 0 mm 1 m/S 739 mmHg 90%
    02:00 +13°C° 0 mm 1 m/S 739 mmHg 89%
    03:00 +13°C° 0 mm 1 m/S 738 mmHg 86%
    04:00 +14°C° 0 mm 1 m/S 738 mmHg 84%
    05:00 +14°C° 0 mm 1 m/S 738 mmHg 81%
    06:00 +14°C° 0.1 mm 1 m/S 738 mmHg 82%
    07:00 +14°C° 0.1 mm 1 m/S 739 mmHg 82%
    08:00 +14°C° 0.1 mm 1 m/S 739 mmHg 83%
    09:00 +15°C° 0.2 mm 1 m/S 739 mmHg 82%
    10:00 +16°C° 0.2 mm 1 m/S 739 mmHg 82%
    11:00 +18°C° 0.2 mm 1 m/S 739 mmHg 81%
    12:00 +18°C° 0.1 mm 1 m/S 739 mmHg 81%
    13:00 +19°C° 0.1 mm 1 m/S 738 mmHg 81%
    14:00 +20°C° 0.1 mm 1 m/S 738 mmHg 80%
    15:00 +19°C° 0 mm 1 m/S 738 mmHg 83%
    16:00 +19°C° 0 mm 1 m/S 738 mmHg 86%
    17:00 +18°C° 0 mm 1 m/S 738 mmHg 89%
    18:00 +18°C° 0 mm 1 m/S 738 mmHg 91%
    19:00 +16°C° 0 mm 1 m/S 738 mmHg 93%
    20:00 +16°C° 0 mm 1 m/S 739 mmHg 95%
    21:00 +16°C° 0 mm 2 m/S 739 mmHg 95%
    22:00 +16°C° 0 mm 2 m/S 739 mmHg 95%
    23:00 +16°C° 0 mm 2 m/S 739 mmHg 96%

    übermorgen, 21 Dezember, Freitag

    Zeit Temperatur Niederschläge Wind Luftdruck Luftfeuchtigkeit
    00:00 +15°C° 0 mm 2 m/S 739 mmHg 96%
    01:00 +15°C° 0 mm 2 m/S 739 mmHg 96%
    02:00 +15°C° 0 mm 1 m/S 739 mmHg 97%
    03:00 +15°C° 0 mm 2 m/S 739 mmHg 97%
    04:00 +15°C° 0 mm 2 m/S 739 mmHg 97%
    05:00 +15°C° 0 mm 2 m/S 739 mmHg 97%
    06:00 +15°C° 0 mm 2 m/S 739 mmHg 96%
    07:00 +16°C° 0 mm 2 m/S 740 mmHg 94%
    08:00 +16°C° 0 mm 1 m/S 740 mmHg 92%
    09:00 +18°C° 0 mm 2 m/S 740 mmHg 86%
    10:00 +20°C° 0 mm 2 m/S 740 mmHg 80%
    11:00 +23°C° 0 mm 2 m/S 740 mmHg 73%
    12:00 +23°C° 0 mm 2 m/S 740 mmHg 75%
    13:00 +21°C° 0 mm 2 m/S 739 mmHg 77%
    14:00 +21°C° 0 mm 2 m/S 738 mmHg 79%
    15:00 +20°C° 0 mm 2 m/S 739 mmHg 84%
    16:00 +19°C° 0 mm 2 m/S 739 mmHg 88%
    17:00 +18°C° 0 mm 2 m/S 739 mmHg 93%
    18:00 +18°C° 0 mm 2 m/S 739 mmHg 94%
    19:00 +18°C° 0 mm 2 m/S 740 mmHg 96%
    20:00 +17°C° 0 mm 2 m/S 740 mmHg 97%
    21:00 +17°C° 0 mm 2 m/S 740 mmHg 97%
    22:00 +17°C° 0 mm 2 m/S 740 mmHg 97%
    23:00 +17°C° 0 mm 2 m/S 741 mmHg 97%

    22 Dezember, Samstag

    Zeit Temperatur Niederschläge Wind Luftdruck Luftfeuchtigkeit
    00:00 +17°C° 0 mm 2 m/S 740 mmHg 97%
    01:00 +17°C° 0 mm 2 m/S 740 mmHg 97%
    02:00 +17°C° 0 mm 2 m/S 740 mmHg 97%
    03:00 +17°C° 0 mm 2 m/S 740 mmHg 97%
    04:00 +16°C° 0 mm 2 m/S 740 mmHg 97%
    05:00 +16°C° 0 mm 2 m/S 740 mmHg 97%
    06:00 +17°C° 0 mm 2 m/S 740 mmHg 96%
    07:00 +17°C° 0 mm 2 m/S 740 mmHg 95%
    08:00 +17°C° 0 mm 2 m/S 741 mmHg 93%
    09:00 +19°C° 0 mm 2 m/S 741 mmHg 88%
    10:00 +20°C° 0 mm 2 m/S 741 mmHg 82%
    11:00 +23°C° 0 mm 2 m/S 741 mmHg 76%
    12:00 +23°C° 0 mm 2 m/S 740 mmHg 77%
    13:00 +23°C° 0 mm 2 m/S 740 mmHg 78%
    14:00 +21°C° 0 mm 2 m/S 739 mmHg 79%
    15:00 +21°C° 0 mm 2 m/S 739 mmHg 83%
    16:00 +20°C° 0 mm 2 m/S 739 mmHg 88%
    17:00 +19°C° 0 mm 2 m/S 739 mmHg 93%
    18:00 +18°C° 0 mm 2 m/S 740 mmHg 94%
    19:00 +18°C° 0 mm 2 m/S 740 mmHg 96%
    20:00 +17°C° 0 mm 2 m/S 741 mmHg 98%
    21:00 +17°C° 0 mm 2 m/S 741 mmHg 98%
    22:00 +18°C° 0 mm 1 m/S 741 mmHg 98%
    23:00 +18°C° 0 mm 1 m/S 741 mmHg 97%

    23 Dezember, Sonntag

    Zeit Temperatur Niederschläge Wind Luftdruck Luftfeuchtigkeit
    00:00 +18°C° 0 mm 1 m/S 741 mmHg 97%
    01:00 +18°C° 0 mm 1 m/S 741 mmHg 97%
    02:00 +18°C° 0 mm 1 m/S 741 mmHg 97%
    03:00 +17°C° 0 mm 2 m/S 741 mmHg 97%
    04:00 +17°C° 0 mm 2 m/S 740 mmHg 97%
    05:00 +17°C° 0 mm 2 m/S 740 mmHg 97%
    06:00 +17°C° 0 mm 2 m/S 741 mmHg 95%
    07:00 +17°C° 0 mm 2 m/S 741 mmHg 93%
    08:00 +18°C° 0 mm 2 m/S 742 mmHg 92%
    09:00 +19°C° 0 mm 2 m/S 742 mmHg 86%
    10:00 +21°C° 0 mm 3 m/S 742 mmHg 80%
    11:00 +24°C° 0 mm 3 m/S 742 mmHg 74%
    12:00 +22°C° 0.3 mm 4 m/S 742 mmHg 78%
    13:00 +20°C° 0.3 mm 4 m/S 741 mmHg 83%
    14:00 +19°C° 0.3 mm 5 m/S 741 mmHg 88%
    15:00 +19°C° 0.4 mm 5 m/S 741 mmHg 90%
    16:00 +17°C° 0.4 mm 5 m/S 741 mmHg 92%
    17:00 +16°C° 0.4 mm 6 m/S 742 mmHg 93%
    18:00 +16°C° 0.4 mm 6 m/S 742 mmHg 93%
    19:00 +15°C° 0.4 mm 6 m/S 743 mmHg 93%
    20:00 +15°C° 0.4 mm 6 m/S 744 mmHg 93%
    21:00 +14°C° 0.2 mm 5 m/S 744 mmHg 93%
    22:00 +14°C° 0.2 mm 5 m/S 744 mmHg 93%
    23:00 +14°C° 0.2 mm 5 m/S 743 mmHg 93%

    24 Dezember, Montag

    Zeit Temperatur Niederschläge Wind Luftdruck Luftfeuchtigkeit
    00:00 +13°C° 0 mm 5 m/S 743 mmHg 93%
    01:00 +13°C° 0 mm 5 m/S 743 mmHg 92%
    02:00 +13°C° 0 mm 5 m/S 742 mmHg 92%
    03:00 +12°C° 0 mm 5 m/S 742 mmHg 92%
    04:00 +12°C° 0 mm 5 m/S 742 mmHg 91%
    05:00 +12°C° 0 mm 5 m/S 742 mmHg 91%
    06:00 +12°C° 0 mm 5 m/S 743 mmHg 90%
    07:00 +12°C° 0 mm 5 m/S 743 mmHg 89%
    08:00 +12°C° 0 mm 5 m/S 743 mmHg 88%
    09:00 +12°C° 0.1 mm 5 m/S 743 mmHg 87%
    10:00 +12°C° 0.1 mm 4 m/S 743 mmHg 85%
    11:00 +12°C° 0.1 mm 4 m/S 743 mmHg 84%
    12:00 +13°C° 0.1 mm 4 m/S 742 mmHg 83%
    13:00 +13°C° 0.1 mm 4 m/S 741 mmHg 82%
    14:00 +13°C° 0.1 mm 4 m/S 740 mmHg 82%
    15:00 +13°C° 0 mm 4 m/S 740 mmHg 83%
    16:00 +13°C° 0 mm 4 m/S 741 mmHg 84%
    17:00 +13°C° 0 mm 4 m/S 741 mmHg 86%
    18:00 +12°C° 0 mm 3 m/S 741 mmHg 87%
    19:00 +12°C° 0 mm 3 m/S 741 mmHg 88%
    20:00 +12°C° 0 mm 3 m/S 741 mmHg 90%
    21:00 +12°C° 0 mm 3 m/S 741 mmHg 90%
    22:00 +12°C° 0 mm 3 m/S 741 mmHg 90%
    23:00 +12°C° 0 mm 3 m/S 741 mmHg 90%
    Mehr zeigen